Location: Red Deer
(52.2681°N, 113.8112°W)
Time: 20:09:05
(UTC-07:00)

N. Korean satellite - Pass Details

Date: 01 December 2022
Orbit: 407 x 441 km, 97.3° (Epoch: 05 February)

Event Time Altitude Azimuth Distance (km) Brightness Sun altitude
Rises 06:04:25 0° 13° (NNE) 2,533 10.3 -20.1°
Reaches altitude 10° 06:06:29 10° 14° (NNE) 1,649 9.3 -19.8°
Maximum altitude 06:10:02 86° 104° (ESE) 479 6.4 -19.2°
Drops below altitude 10° 06:13:32 10° 193° (SSW) 1,619 9.2 -18.7°
Sets 06:15:33 0° 194° (SSW) 2,482 10.2 -18.4°
